This demonstration page uses our WeatherBlox Daily Observations layout. Learn more.

Left ArrowRight Arrow

Hourly Observations for March 8, 2019

Temp ( °F °C ) Dew Point ( °F °C ) Humidity (%) Winds ( mph kmh ) Pressure ( in mb ) Visibility ( mi km ) Precip ( " mm )
12:52 am 00:52 Cloudy 27 -2.8 21 -6.1 78 78 E 5 7 30.09 1019 10 16 0.00 0.00
1:52 am 01:52 Cloudy 27 -2.8 21 -6.1 78 78 E 5 7 30.08 1019 9 14 0.00 0.00
2:52 am 02:52 Mostly Cloudy 24 -4.4 20 -6.7 84 84 Calm 30.08 1019 8 13 0.00 0.00
3:32 am 03:32 Mostly Cloudy with Mist and Fog 22 -5.6 19 -7.2 89 89 NNE 3 6 30.10 1019 6 10 0.00 0.00
3:52 am 03:52 Mostly Cloudy with Mist and Fog 21 -6.1 18 -7.8 88 88 NNE 3 6 30.05 1018 4 6 0.00 0.00
4:28 am 04:28 Mostly Cloudy with Mist and Fog 19 -7.2 17 -8.3 92 92 NNW 3 6 30.10 1019 4 6 0.00 0.00
4:52 am 04:52 Mostly Cloudy with Mist and Fog 20 -6.7 17 -8.3 89 89 Calm 30.07 1018 4 6 0.00 0.00
5:19 am 05:19 Cloudy with Mist and Fog 17 -8.3 14 -10 88 88 NNW 3 6 30.12 1020 3 4 0.00 0.00
5:52 am 05:52 Cloudy with Mist and Fog 19 -7.2 15 -9.4 84 84 Calm 30.08 1019 3 5 0.00 0.00
6:52 am 06:52 Cloudy with Mist and Fog 19 -7.2 16 -8.9 88 88 Calm 30.08 1019 3 4 0.00 0.00
7:01 am 07:01 Cloudy with Mist and Fog 20 -6.7 17 -8.3 89 89 Calm 30.12 1020 3 4 0.00 0.00
7:52 am 07:52 Cloudy with Mist and Fog 22 -5.6 19 -7.2 89 89 W 3 6 30.08 1019 3 4 0.00 0.00
8:35 am 08:35 Cloudy with Mist and Fog 24 -4.4 22 -5.6 91 91 Calm 30.12 1020 3 5 0.00 0.00
8:52 am 08:52 Cloudy with Mist and Fog 25 -3.9 21 -6.1 85 85 Calm 30.09 1019 3 5 0.00 0.00
9:52 am 09:52 Cloudy with Mist and Fog 28 -2.2 24 -4.4 85 85 Calm 30.07 1018 3 5 0.00 0.00
10:52 am 10:52 Cloudy with Mist and Fog 31 -0.6 27 -2.8 85 85 SE 6 9 30.06 1018 4 6 0.00 0.00
11:29 am 11:29 Cloudy with Haze 32 0 27 -2.8 82 82 S 7 11 30.07 1018 5 8 0.00 0.00
11:52 am 11:52 Mostly Cloudy with Haze 33 0.6 27 -2.8 78 78 S 7 11 30.05 1018 5 8 0.00 0.00
12:52 pm 12:52 Cloudy with Haze 35 1.7 28 -2.2 76 76 S 8 13 30.02 1017 6 10 0.00 0.00
1:52 pm 13:52 Cloudy with Haze 36 2.2 28 -2.2 73 73 SSE 8 13 30.00 1016 6 10 0.00 0.00
2:52 pm 14:52 Cloudy 36 2.2 29 -1.7 76 76 SSE 9 15 29.98 1015 7 11 0.00 0.00
3:52 pm 15:52 Cloudy with Haze 36 2.2 29 -1.7 76 76 SE 9 15 29.98 1015 6 10 0.00 0.00
4:52 pm 16:52 Cloudy 36 2.2 29 -1.7 76 76 SE 10 17 29.95 1014 7 11 0.00 0.00
5:52 pm 17:52 Cloudy with Haze 36 2.2 29 -1.7 76 76 SE 9 15 29.93 1014 6 10 0.00 0.00
6:52 pm 18:52 Cloudy 35 1.7 29 -1.7 78 78 ESE 8 13 29.93 1014 7 11 0.00 0.00
7:52 pm 19:52 Cloudy 35 1.7 29 -1.7 78 78 ESE 10 17 29.91 1013 7 11 0.00 0.00
8:52 pm 20:52 Cloudy 35 1.7 29 -1.7 78 78 SE 12 19 29.88 1012 7 11 0.00 0.00
9:35 pm 21:35 Cloudy with Mist and Fog 35 1.7 30 -1.1 82 82 SE 18 30 29.90 1013 6 10 0.00 0.00
9:52 pm 21:52 Cloudy with Mist and Fog 35 1.7 30 -1.1 82 82 SE 16 26 29.88 1012 4 6 0.00 0.00
10:52 pm 22:52 Cloudy with Mist and Fog 34 1.1 30 -1.1 85 85 SE 18 30 29.88 1012 3 5 0.00 0.00
11:52 pm 23:52 Cloudy with Mist and Fog 34 1.1 31 -0.6 89 89 ESE 16 26 29.83 1010 3 5 0.00 0.00

Powered by AerisWeather